EW0380 Weather Reports


Display with metric or nautical units.
time (UTC)temp
F
wind
direction
speed
MPH
gust
MPH
rain 1hr
in
rain 24hr
in
rain mn
in
humidity
%
barometer
mb
20260505011031 66 193 7.0 9.0 0.00 0.00 0.00 64 1004.7
20260505010017 66 177 7.0 10.0 0.00 0.00 0.00 64 1004.5
20260505005021 66 180 7.0 9.0 0.00 0.00 0.00 65 1004.6
20260505004026 66 200 7.0 9.0 0.00 0.00 0.00 66 1004.5
20260505003031 66 203 7.0 10.0 0.00 0.00 0.00 68 1004.4
20260505002016 65 180 6.0 9.0 0.00 0.00 0.00 70 1004.4
20260505001041 64 167 4.0 6.0 0.00 0.00 0.00 73 1004.4
20260505000025 64 175 3.0 5.0 0.00 0.00 0.00 75 1004.2
20260504235029 63 138 4.0 5.0 0.00 0.00 0.00 76 1004.5
20260504234057 63 145 3.0 4.0 0.00 0.00 0.00 79 1004.5
20260504233020 64 197 3.0 4.0 0.00 0.00 0.00 74 1004.5
20260504232024 64 208 8.0 9.0 0.00 0.00 0.00 71 1004.7
20260504231028 69 208 15.0 21.0 0.00 0.00 0.00 60 1004.4
20260504230015 71 194 9.0 16.0 0.00 0.00 0.00 56 1004.6
20260504225019 71 191 10.0 15.0 0.00 0.00 0.00 55 1004.9
20260504224024 70 206 10.0 15.0 0.00 0.00 0.00 56 1005.0
20260504223027 71 205 11.0 14.0 0.00 0.00 0.00 55 1005.0
20260504222032 71 183 9.0 11.0 0.00 0.00 0.00 54 1005.0
20260504221058 71 200 12.0 15.0 0.00 0.00 0.00 52 1005.0
20260504220042 71 193 13.0 17.0 0.00 0.00 0.00 51 1005.0
20260504215026 72 214 16.0 21.0 0.00 0.00 0.00 49 1005.1
20260504214031 73 210 14.0 21.0 0.00 0.00 0.00 49 1005.2
20260504213037 73 212 14.0 23.0 0.00 0.00 0.00 48 1005.2
20260504212022 73 201 14.0 19.0 0.00 0.00 0.00 47 1005.2
20260504211026 72 209 17.0 22.0 0.00 0.00 0.00 45 1005.2
20260504210024 72 215 16.0 22.0 0.00 0.00 0.00 46 1005.2
20260504205016 0 0.0 0.0 0.00 0.00 0.00 1005.5
20260504204021 0 0.0 0.0 0.00 0.00 0.00 1005.5
20260504203039 0 0.0 0.0 0.00 0.00 0.00 1005.5
20260504202018 0 0.0 0.0 0.00 0.00 0.00 1005.5
20260504201036 0 0.0 0.0 0.00 0.00 0.00 1005.4
20260504200021 0 0.0 0.0 0.00 0.00 0.00 1005.7
20260504195045 0 0.0 0.0 0.00 0.00 0.00 1005.9
20260504194029 0 0.0 0.0 0.00 0.00 0.00 1006.0
20260504193015 0 0.0 0.0 0.00 0.00 0.00 1006.2
20260504192020 0 0.0 0.0 0.00 0.00 0.00 1006.2
20260504191024 74 217 10.0 15.0 0.00 0.00 0.00 41 1006.4
20260504190028 74 211 13.0 17.0 0.00 0.00 0.00 41 1006.2
20260504185032 73 190 11.0 15.0 0.00 0.00 0.00 43 1006.6
20260504184019 73 211 11.0 17.0 0.00 0.00 0.00 44 1006.6
20260504183023 73 206 12.0 15.0 0.00 0.00 0.00 46 1006.7
20260504182028 73 207 15.0 21.0 0.00 0.00 0.00 46 1006.7
20260504181032 72 176 12.0 14.0 0.00 0.00 0.00 47 1006.9
20260504180018 71 191 13.0 17.0 0.00 0.00 0.00 47 1007.0
20260504175043 71 198 13.0 16.0 0.00 0.00 0.00 49 1007.1
20260504174027 71 196 9.0 12.0 0.00 0.00 0.00 49 1007.2
20260504173031 70 203 11.0 16.0 0.00 0.00 0.00 50 1007.3
20260504172058 70 196 13.0 18.0 0.00 0.00 0.00 51 1007.4
20260504171022 69 174 13.0 19.0 0.00 0.00 0.00 50 1007.5
20260504151019 64 185 9.0 15.0 0.00 0.00 0.00 57 1008.7
20260504141015 61 196 9.0 11.0 0.00 0.00 0.00 61 1009.0
20260504081015 49 170 7.0 9.0 0.00 0.00 0.00 67 1010.0
20260504045016 49 175 5.0 6.0 0.00 0.00 0.00 65 1012.3
20260504044040 49 178 6.0 7.0 0.00 0.00 0.00 65 1012.3
20260504043105 49 180 5.0 7.0 0.00 0.00 0.00 65 1012.3
20260504042029 49 177 4.0 5.0 0.00 0.00 0.00 65 1012.4
20260504041015 49 172 4.0 5.0 0.00 0.00 0.00 64 1012.5
20260504040040 49 166 4.0 5.0 0.00 0.00 0.00 63 1012.6
20260504035043 48 185 4.0 4.0 0.00 0.00 0.00 65 1013.0
20260504034027 49 203 5.0 6.0 0.00 0.00 0.00 64 1013.1
20260504033026 49 229 4.0 6.0 0.00 0.00 0.00 65 1013.1
20260504032018 49 255 3.0 5.0 0.00 0.00 0.00 64 1013.0
20260504031022 49 184 4.0 6.0 0.00 0.00 0.00 63 1013.0
20260504030021 49 178 4.0 5.0 0.00 0.00 0.00 63 1012.9
20260504025019 50 194 4.0 5.0 0.00 0.00 0.00 63 1013.0
20260504024017 50 180 4.0 4.0 0.00 0.00 0.00 62 1013.0
20260504023016 50 183 3.0 3.0 0.00 0.00 0.00 62 1013.0
20260504022026 50 186 3.0 4.0 0.00 0.00 0.00 63 1013.1
20260504021031 51 194 3.0 4.0 0.00 0.00 0.00 61 1013.0
20260504020037 51 178 3.0 4.0 0.00 0.00 0.00 60 1012.9
20260504015021 52 203 3.0 4.0 0.00 0.00 0.00 58 1012.9
20260504014025 53 200 4.0 4.0 0.00 0.00 0.00 57 1012.8
20260504013029 53 203 4.0 5.0 0.00 0.00 0.00 56 1012.7
20260504012016 54 207 4.0 5.0 0.00 0.00 0.00 56 1012.6